NOAA 16 DEB, 41360

Orbit data source: Space-Track

NOAA 16 DEB, 41360 is space debris in SSO originally from a launch on Thu, 21 Sep 2000 UTC launched from the Air Force Western Test Range (AFWTR). Debris objects in space refer to the collection of defunct objects orbiting the Earth. Examples of debris include non-operational satellites, rocket bodies, and fragments generated from explosions, collisions, or faulty payload assembly.

Loading next visibility...
Identifier
41360, 2000-055JD
Orbit
SSO
Country
Flag of USUS
Related business
Manufacturer
Unknown
Mission
Spacecraft
Bus & Motor
Unknown
Mass
Unknown
Launch date (UTC)
2000-09-21 (26 years ago)
Launch vehicle
Unknown
Launch site
Air Force Western Test Range (AFWTR)
Object type
Payload
Rocket body
Debris
Shape & HBR
Unknown shape, 0.1 m
Radar Cross Section
Medium (>0.1 m² and <1 m²)

Expand to show TLE details & history
Last TLE update: 1 day ago

TLE from 1 day ago
0 NOAA 16 DEB
1 41360U 00055JD  26235.62276112  .00003441  00000-0  12548-2 0  9993
2 41360  98.9020   3.9074 0024079 170.1578 190.0082 14.33599271546894
Epoch: 2026-08-23T14:56Z
TLE epoch observation values (Epoch: 2026-08-23T14:56:46.560Z)
Latitude
-0.00002°
Longitude
167.79724°
Altitude
799.63 km
Speed
7.445 km/s
True Right ascension
00h 15m 37s
True Declination
0° 00' 00"
Sunlit
Object was in full shadow at epoch
Visualization orbit readout
Latitude
Unknown
Longitude
Unknown
Altitude
Unknown
Speed
Unknown
Apparent Right ascension
Unknown
Apparent Declination
Unknown
Sunlit
N/A
Visualization observer readout
Local Sidereal Time
10:20:51
Azimuth
Unknown
Elevation
Unknown
Doppler factor
Unknown
Orbital elements
Apogee altitude
794.103 km
Perigee altitude
759.646 km
Semi-major axis
7,155.012 km
Eccentricity
0.00241
Inclination
98.902°
RAAN
3.9074°
Arg. of periapsis
170.1578°
True anomaly
189.96039°
Mean anomaly
190.0082°
Eccentric anomaly
189.98428°
Mean motion
3.58614 °/min
Orbital period
100.39 mins
BSTAR
0.0012548
Loading maneuver chart data...
Computing Atmospheric mass density...
Loading historical data...
Loading historical data...
Loading historical data...
Loading historical data...
Loading historical data...
Loading historical data...
Loading historical data...

Documentation

Showing up to 5 results
|